Location: Nickerson Gardens
(33.9320°N, 118.2484°W)
Time: 11:48:56
(UTC+00:00)

PCSat - Visible Passes

Search period start: 23 April 2021 00:00
Search period end: 03 May 2021 00:00
Orbit: 784 x 795 km, 67.1° (Epoch: 23 April)

Date Brightness Start Highest point End Pass type
(mag) Time Alt. Az. Time Alt. Az. Time Alt. Az.
23 Apr 12.3 07:42:35 10° N 07:43:30 14° N 07:43:30 14° N visible
24 Apr 12.3 07:12:06 10° N 07:13:01 13° NNE 07:13:01 13° NNE visible
25 Apr 12.3 06:41:56 10° NNE 06:42:36 11° NNE 06:42:36 11° NNE visible
25 Apr 12.4 08:23:07 10° NNW 08:23:17 11° NNW 08:23:17 11° NNW visible
26 Apr 12.2 07:52:06 10° NNW 07:52:53 14° NNW 07:52:53 14° NNW visible
27 Apr 12.1 07:21:12 10° NNW 07:22:30 17° N 07:22:30 17° N visible
28 Apr 11.9 06:50:23 10° N 06:52:09 19° N 06:52:09 19° N visible
29 Apr 11.7 06:19:41 10° N 06:21:50 19° NNE 06:21:50 19° NNE visible
30 Apr 11.7 05:49:10 10° N 05:51:33 17° NNE 05:51:33 17° NNE visible
30 Apr 12.2 07:31:24 10° NW 07:32:15 15° NW 07:32:15 15° NW visible
01 May 11.8 05:18:56 10° NNE 05:21:17 14° NE 05:21:17 14° NE visible
01 May 11.8 07:00:16 10° NNW 07:01:59 21° NNW 07:01:59 21° NNW visible
02 May 11.4 06:29:15 10° NNW 06:31:45 28° NNW 06:31:45 28° NNW visible
